This demonstration page uses our WeatherBlox Daily Observations layout. Learn more.

Left ArrowRight Arrow

Hourly Observations for June 4, 2021

Temp ( °F °C ) Dew Point ( °F °C ) Humidity (%) Winds ( mph kmh ) Pressure ( in mb ) Visibility ( mi km ) Precip ( " mm )
12:56 am 00:56 Clear 67 19.4 57 13.9 71 71 S 13 20 29.91 1013 10 16 0.00 0.00
1:56 am 01:56 Clear 65 18.3 56 13.3 73 73 S 9 15 29.91 1013 10 16 0.00 0.00
2:56 am 02:56 Clear 63 17.2 56 13.3 78 78 S 8 13 29.91 1013 10 16 0.00 0.00
3:56 am 03:56 Clear 60 15.6 55 12.8 84 84 SSW 5 7 29.91 1013 10 16 0.00 0.00
4:56 am 04:56 Clear 58 14.4 55 12.8 90 90 S 6 9 29.90 1013 10 16 0.00 0.00
5:56 am 05:56 Mostly Clear 58 14.4 54 12.2 87 87 S 6 9 29.90 1013 10 16 0.00 0.00
6:56 am 06:56 Sunny 60 15.6 55 12.8 84 84 SSW 7 11 29.91 1013 10 16 0.00 0.00
7:56 am 07:56 Sunny 65 18.3 55 12.8 70 70 SSW 9 15 29.92 1013 10 16 0.00 0.00
8:56 am 08:56 Sunny 72 22.2 57 13.9 59 59 SW 9 15 29.92 1013 10 16 0.00 0.00
9:56 am 09:56 Sunny 78 25.6 57 13.9 48 48 SW 15 24 29.91 1013 10 16 0.00 0.00
10:56 am 10:56 Sunny 81 27.2 59 15 47 47 SW 14 22 29.90 1012 10 16 0.00 0.00
11:56 am 11:56 Sunny 84 28.9 59 15 43 43 SW 13 20 29.88 1012 10 16 0.00 0.00
12:56 pm 12:56 Sunny 87 30.6 53 11.7 31 31 SW 16 26 29.86 1011 10 16 0.00 0.00
1:56 pm 13:56 Sunny 87 30.6 55 12.8 34 34 S 8 13 29.85 1011 10 16 0.00 0.00
2:56 pm 14:56 Sunny 88 31.1 54 12.2 31 31 S 17 28 29.85 1011 10 16 0.00 0.00
3:56 pm 15:56 Sunny 88 31.1 54 12.2 31 31 S 15 24 29.84 1011 10 16 0.00 0.00
4:56 pm 16:56 Sunny 88 31.1 54 12.2 31 31 SSW 14 22 29.83 1010 10 16 0.00 0.00
5:56 pm 17:56 Sunny 86 30 56 13.3 36 36 S 17 28 29.82 1010 10 16 0.00 0.00
6:56 pm 18:56 Sunny 85 29.4 56 13.3 37 37 S 13 20 29.82 1010 10 16 0.00 0.00
7:56 pm 19:56 Sunny 83 28.3 55 12.8 38 38 S 16 26 29.81 1010 10 16 0.00 0.00
8:56 pm 20:56 Sunny 78 25.6 54 12.2 43 43 S 10 17 29.82 1010 10 16 0.00 0.00
9:56 pm 21:56 Clear 74 23.3 55 12.8 52 52 S 10 17 29.82 1010 10 16 0.00 0.00
10:56 pm 22:56 Clear 73 22.8 55 12.8 53 53 S 12 19 29.82 1010 10 16 0.00 0.00
11:56 pm 23:56 Clear 72 22.2 55 12.8 55 55 S 13 20 29.82 1010 10 16 0.00 0.00

Powered by AerisWeather